"TOA5","AWS1","CR1000","7964","CR1000.Std.14","CPU:AWS1_114.CR1","64363","TBL110"
"TIMESTAMP","RECORD","Wind_spd_WVc(1)","Wind_spd_WVc(2)","Air_Temp_Avg","Humidity_Avg","SW_upper_Wm2_Avg","Rain_Tot","Press_Avg","Issui_Tot","Depth_cm","SR50A_Raw","Quality","Ground_Temp_Avg(1)","Ground_Temp_Avg(2)","SW_lower_Wm2_Avg","Albedo_Avg","SWC_per(1)","SWC_per(2)","Period(1)","Period(2)"
"TS","RN","","","","","","","","","","","","","","","","","","",""
"","","WVc","WVc","Avg","Avg","Avg","Tot","Avg","Tot","Smp","Smp","Smp","Avg","Avg","Avg","Avg","Smp","Smp","Smp","Smp"
"2016-02-04 00:00:00",220957,0.361,211.7,-8.41,73.8,0,0,866.1642,0,31.24,2.916,176,1.328,1.934,0.3224413,0,51.71,59.85,33.72,35.64
"2016-02-04 00:10:00",220958,0.197,65.04,-8.68,74.21,0,0,866.16,0,31.61,2.908,176,1.328,1.934,0.2617465,0,51.66,59.85,33.7,35.64
"2016-02-04 00:20:00",220959,0.486,188.9,-8.43,73.31,0,0,865.966,0,31.63,2.909,189,1.328,1.934,0.5576338,0,51.71,59.85,33.72,35.64
"2016-02-04 00:30:00",220960,0.432,179.7,-8.6,74.46,0,0,865.9893,0,31.73,2.912,175,1.328,1.934,0.2731267,0,51.66,59.85,33.7,35.64
"2016-02-04 00:40:00",220961,0.294,222,-8.49,74.51,0,0,865.8943,0,31.6,2.909,176,1.328,1.934,0.3148544,0,51.66,59.85,33.7,35.64
"2016-02-04 00:50:00",220962,0.373,203.3,-8.31,72.62,0,0,865.9006,0,31.56,2.908,176,1.328,1.934,0.4210704,0,51.71,59.85,33.72,35.64
"2016-02-04 01:00:00",220963,0.503,197.6,-8.23,71.73,0,0,865.7847,0,30.61,2.92,185,1.328,1.934,0.3945164,0,51.66,59.85,33.7,35.64
"2016-02-04 01:10:00",220964,0.768,183.8,-9.27,75.26,0,0,865.7236,0,31.58,2.913,176,1.328,1.934,0,0,51.66,59.85,33.7,35.64
"2016-02-04 01:20:00",220965,0.323,172.8,-9.01,73.2,0,0,865.692,0,31.53,2.914,189,1.328,1.934,0.01896713,0,51.66,59.85,33.7,35.64
"2016-02-04 01:30:00",220966,0.739,190.5,-8.74,71.63,0,0,865.6582,0,31.79,2.909,176,1.328,1.934,0.2617465,0,51.66,59.85,33.7,35.64
"2016-02-04 01:40:00",220967,0.62,199.8,-8.45,69.52,0,0,865.7321,0,30.62,2.918,184,1.328,1.934,0.4476244,0,51.66,59.85,33.7,35.64
"2016-02-04 01:50:00",220968,0.475,179,-8.85,71.1,0,0,865.6582,0,31.3,2.913,187,1.328,1.934,0.1175962,0,51.66,59.85,33.7,35.64
"2016-02-04 02:00:00",220969,0.541,199.3,-8.56,68.99,0,0,865.6371,0,31.28,2.914,172,1.328,1.934,0.2731267,0,51.66,59.85,33.7,35.64
"2016-02-04 02:10:00",220970,0.357,149.6,-9.31,72.28,0,0,865.5676,0,31.66,2.916,188,1.324,1.934,0.03034741,0,51.66,59.85,33.7,35.64
"2016-02-04 02:20:00",220971,0.388,138.5,-9.56,73.65,0,0,865.6582,0,31.57,2.917,185,1.324,1.934,0.003793427,0,51.66,59.85,33.7,35.64
"2016-02-04 02:30:00",220972,0.725,193.9,-9.07,70.95,0,0,865.5865,0,31.5,2.911,176,1.315,1.937,0.5121127,0,51.66,59.85,33.7,35.64
"2016-02-04 02:40:00",220973,0.429,235.1,-8.55,68.66,0,0,865.4073,0,31.14,2.917,192,1.314,1.929,0.4514178,0,51.66,59.85,33.7,35.64
"2016-02-04 02:50:00",220974,0.64,205.8,-9.02,71.22,0,0,865.148,0,31.85,2.907,176,1.312,1.936,0.1365634,0,51.66,59.85,33.7,35.64
"2016-02-04 03:00:00",220975,0.967,181.2,-8.57,70.66,0,0,864.8339,0,31.68,2.908,184,1.32,1.935,0.3869295,0,51.66,59.85,33.7,35.64
"2016-02-04 03:10:00",220976,0.664,204.7,-8.36,69.48,0,0,864.8907,0,31.59,2.908,185,1.311,1.932,0.3414084,0,51.66,59.85,33.7,35.64
"2016-02-04 03:20:00",220977,0.249,237.6,-8.19,69,0,0,864.973,0,31.78,2.906,187,1.31,1.931,0.1175962,0,51.66,59.85,33.7,35.64
"2016-02-04 03:30:00",220978,0.172,120.3,-8.28,69.42,0,0,864.9498,0,30.99,2.919,185,1.32,1.934,0.1403568,0,51.66,59.85,33.7,35.64
"2016-02-04 03:40:00",220979,0.022,171.6,-9.34,74.16,0,0,864.8992,0,31.29,2.915,184,1.293,1.94,0.05310798,0,51.66,59.85,33.7,35.64
"2016-02-04 03:50:00",220980,0.199,87.3,-8.71,71.16,0,0,864.8992,0,31.35,2.913,188,1.282,1.96,0.4514178,0,51.66,59.85,33.7,35.64
"2016-02-04 04:00:00",220981,0.073,6.395,-8.55,69.61,0,0,865.1248,0,31.55,2.911,176,1.256,1.937,0.648676,0,51.66,59.85,33.7,35.64
"2016-02-04 04:10:00",220982,0.18,353.7,-8.05,66.02,0,0,865.1269,0,31.72,2.904,192,1.254,1.951,1.33908,0,51.66,59.85,33.7,35.64
"2016-02-04 04:20:00",220983,0.233,318.4,-7.737,63.67,0,0,865.129,0,31.82,2.904,182,1.265,1.933,1.077333,0,51.66,59.85,33.7,35.64
"2016-02-04 04:30:00",220984,0.273,20.83,-7.996,65.52,0,0,865.1564,0,31.66,2.908,184,1.248,1.92,0.5386666,0,51.66,59.85,33.7,35.64
"2016-02-04 04:40:00",220985,0.163,73.49,-7.85,65.81,0,0,865.188,0,31.02,2.914,192,1.256,1.929,0.7814459,0,51.66,59.85,33.7,35.64
"2016-02-04 04:50:00",220986,0.236,173.9,-9.25,70.45,0,0,865.1522,0,31.94,2.908,189,1.242,1.936,0.01896713,0,51.66,59.85,33.7,35.64
"2016-02-04 05:00:00",220987,0.197,148.5,-8.81,68.98,0,0,865.0299,0,31.35,2.914,188,1.232,1.936,0.364169,0,51.66,59.85,33.7,35.64
"2016-02-04 05:10:00",220988,0.376,166.5,-9.23,71.27,0,0,865.1649,0,31.43,2.915,187,1.227,1.918,0.0834554,0,51.66,59.79,33.7,35.63
"2016-02-04 05:20:00",220989,0.169,148,-9.28,71.49,0,0,865.3398,0,31.04,2.919,184,1.215,1.897,0.01517371,0,51.66,59.79,33.7,35.63
"2016-02-04 05:30:00",220990,0.189,121.4,-8.65,67.8,0,0,865.3778,0,30.76,2.919,192,1.219,1.913,0.754892,0,51.66,59.85,33.7,35.64
"2016-02-04 05:40:00",220991,0.155,178.7,-8.93,69.61,0,0,865.4053,0,31.75,2.907,192,1.209,1.894,0.284507,0,51.6,59.79,33.69,35.63
"2016-02-04 05:50:00",220992,0.224,177.7,-8.22,66.91,0,0,865.4769,0,31.52,2.907,177,1.205,1.878,1.08492,0,51.66,59.85,33.7,35.64
"2016-02-04 06:00:00",220993,0.282,140.5,-7.781,64.02,0,0,865.4581,0,31.48,2.907,193,1.221,1.889,1.335286,0,51.66,59.79,33.7,35.63
"2016-02-04 06:10:00",220994,0.576,185.8,-7.617,61.54,0,0,865.4095,0,31.19,2.908,184,1.244,1.893,1.092507,0,51.66,59.79,33.7,35.63
"2016-02-04 06:20:00",220995,0.182,157.7,-7.973,62.03,0,0,865.4775,0,31.55,2.91,184,1.247,1.891,0.337615,0,51.66,59.79,33.7,35.63
"2016-02-04 06:30:00",220996,0.132,104.2,-7.43,58.01,0,0,865.5045,0,31.65,2.901,192,1.213,1.893,0.9521607,0,51.66,59.79,33.7,35.63
"2016-02-04 06:40:00",220997,0.231,76.06,-7.059,56.65,0,0,865.42,0,31.22,2.906,192,1.233,1.887,1.278399,0,51.66,59.79,33.7,35.63
"2016-02-04 06:50:00",220998,0.438,115.9,-6.982,57.28,0,0,865.283,0,31.12,2.908,192,1.231,1.899,2.507468,0,51.66,59.79,33.7,35.63
"2016-02-04 07:00:00",220999,0.337,140.3,-7.429,60.56,1.223574,0,865.165,0,31.93,2.901,188,1.211,1.916,3.774467,4.293,51.66,59.79,33.7,35.63
"2016-02-04 07:10:00",221000,0.633,156.4,-7.392,62.78,4.815604,0,865.1608,0,31.05,2.909,188,1.224,1.93,7.510992,1.592,51.66,59.79,33.7,35.63
"2016-02-04 07:20:00",221001,0.936,170.8,-7.175,63.7,5.92508,0,865.0996,0,31.67,2.901,192,1.28,1.934,9.240794,1.558,51.6,59.79,33.69,35.63
"2016-02-04 07:30:00",221002,0.68,161.6,-6.837,62.75,7.93945,0,864.9667,0,31.72,2.897,188,1.298,1.934,13.11768,1.646,51.6,59.79,33.69,35.63
"2016-02-04 07:40:00",221003,0.449,182.8,-6.096,58.66,19.01848,0,865.0574,0,31.66,2.895,193,1.326,1.934,30.02879,1.579,51.6,59.79,33.69,35.63
"2016-02-04 07:50:00",221004,0.471,151.4,-5.853,57.83,27.45759,0,865.0933,0,31.89,2.892,192,1.327,1.904,47.60374,1.73,51.6,59.79,33.69,35.63
"2016-02-04 08:00:00",221005,0.481,102,-5.392,55.8,25.26618,0,864.9225,0,31.71,2.891,192,1.309,1.884,34.72126,1.396,51.6,59.79,33.69,35.63
"2016-02-04 08:10:00",221006,0.39,100.8,-5.226,51.47,38.78448,0,865.0637,0,31.73,2.888,192,1.266,1.86,39.17854,1.193,51.66,59.79,33.7,35.63
"2016-02-04 08:20:00",221007,0.338,60.53,-4.19,42.29,65.06966,0,865.1439,0,31.59,2.885,192,1.244,1.893,68.33483,1.156,51.66,59.79,33.7,35.63
"2016-02-04 08:30:00",221008,0.337,12.28,-4.08,46.8,107.0449,0,865.127,0,31.24,2.893,191,1.252,1.936,71.74133,1.13,51.6,59.79,33.69,35.63
"2016-02-04 08:40:00",221009,0.418,134,-4.95,56.62,57.26397,0,865.1376,0,31.65,2.89,190,1.311,2,68.35758,1.353,51.6,59.79,33.69,35.63
"2016-02-04 08:50:00",221010,0.649,158.9,-4.557,55.72,46.19955,0,865.0314,0,31.32,2.889,192,1.361,1.953,70.19955,1.634,51.6,59.79,33.69,35.63
"2016-02-04 09:00:00",221011,0.545,113.9,-4.111,53.87,42.68589,0,864.8622,0,31.55,2.885,192,1.298,1.903,69.75626,1.647,51.6,59.79,33.69,35.63
"2016-02-04 09:10:00",221012,0.517,143,-3.831,52.63,49.04461,0,864.7321,0,31.85,2.881,192,1.266,1.871,71.51498,1.571,51.66,59.79,33.7,35.63
"2016-02-04 09:20:00",221013,0.569,161.2,-3.037,48.65,67.48436,0,864.7592,0,31.75,2.876,192,1.23,1.845,73.56982,1.191,51.66,59.79,33.7,35.63
"2016-02-04 09:30:00",221014,0.062,169.8,-2.793,46.4,45.13525,0,864.8087,0,31.49,2.881,191,1.251,1.858,71.69482,1.589,51.6,59.79,33.69,35.63
"2016-02-04 09:40:00",221015,0.295,345.9,-3.093,47.72,51.38442,0,864.9812,0,31.6,2.882,192,1.242,1.927,76.15763,1.484,51.6,59.79,33.69,35.63
"2016-02-04 09:50:00",221016,0.397,337.8,-3.603,53.24,67.1634,0,864.8526,0,31.85,2.881,192,1.232,1.933,77.93217,1.185,51.66,59.79,33.7,35.63
"2016-02-04 10:00:00",221017,0.452,318.7,-3.793,54.6,84.24821,0,865.0465,0,31.48,2.885,192,1.207,1.933,77.35953,0.935,51.6,59.79,33.69,35.63
"2016-02-04 10:10:00",221018,0.154,21.75,-3.409,53.26,115.8889,0,865.0908,0,31.61,2.88,192,1.211,1.933,121.7009,1.055,51.66,59.79,33.7,35.63
"2016-02-04 10:20:00",221019,0.083,333.4,-3.092,55.14,75.24451,0,865.2616,0,31.5,2.883,192,1.202,1.924,100.0312,1.33,51.6,59.79,33.69,35.63
"2016-02-04 10:30:00",221020,0.057,346.6,-3.429,58.2,62.03506,0,865.2885,0,31.58,2.883,192,1.192,1.914,79.25472,1.278,51.6,59.79,33.69,35.63
"2016-02-04 10:40:00",221021,0.137,354.9,-3.473,59.55,83.7401,0,865.2528,0,31.49,2.882,192,1.166,1.872,102.4481,1.225,51.6,59.79,33.69,35.63
"2016-02-04 10:50:00",221022,0.134,48.68,-3.071,60.95,105.3215,0,865.1766,0,31.56,2.88,192,1.157,1.833,119.8121,1.146,51.6,59.79,33.69,35.63
"2016-02-04 11:00:00",221023,0.485,98.5,-2.866,62.06,157.2229,0,864.9716,0,31.32,2.882,192,1.192,1.851,150.4745,0.982,51.6,59.79,33.69,35.63
"2016-02-04 11:10:00",221024,0.674,101.5,-3.042,61.09,134.2861,0,864.7977,0,31.35,2.884,192,1.199,1.881,132.8815,1.02,51.6,59.73,33.69,35.62
"2016-02-04 11:20:00",221025,1.041,140.2,-3.559,60.39,116.9506,0,864.7173,0,31.41,2.885,192,1.193,1.874,130.9246,1.12,51.6,59.79,33.69,35.63
"2016-02-04 11:30:00",221026,0.825,128.1,-3.569,63.18,135.6098,0,864.5172,0,31.77,2.88,191,1.197,1.879,146.5198,1.086,51.6,59.73,33.69,35.62
"2016-02-04 11:40:00",221027,0.524,116.6,-3.32,66.65,119.5137,0,864.4645,0,31.39,2.882,191,1.2,1.886,130.0447,1.097,51.6,59.73,33.69,35.62
"2016-02-04 11:50:00",221028,0.497,39.03,-3.238,67.72,101.0193,0,864.456,0,31.47,2.883,192,1.224,1.887,111.7236,1.109,51.6,59.73,33.69,35.62
"2016-02-04 12:00:00",221029,0.45,91.9,-3.376,69.01,106.5937,0,864.2125,0,31.57,2.882,192,1.212,1.884,108.569,1.028,51.6,59.73,33.69,35.62
"2016-02-04 12:10:00",221030,0.535,81.6,-3.438,69.23,100.4588,0,864.1095,0,31.55,2.883,192,1.219,1.882,96.82349,0.971,51.6,59.73,33.69,35.62
"2016-02-04 12:20:00",221031,0.398,31.14,-3.392,69.94,119.6284,0,863.9398,0,31.65,2.882,192,1.2,1.872,112.0772,0.962,51.6,59.73,33.69,35.62
"2016-02-04 12:30:00",221032,0.393,115,-3.039,69.22,195.7074,0,863.9141,0,31.41,2.881,192,1.237,1.857,150.8584,0.8,51.6,59.73,33.69,35.62
"2016-02-04 12:40:00",221033,0.713,139.9,-2.933,66.87,362.5786,0,863.7661,0,31.31,2.883,192,1.238,1.828,195.2604,0.729,51.55,59.73,33.68,35.62
"2016-02-04 12:50:00",221034,0.772,152.4,-3,66.23,336.7068,0,863.5629,0,31.37,2.881,192,1.224,1.821,203.5416,0.689,51.6,59.73,33.69,35.62
"2016-02-04 13:00:00",221035,0.685,133.4,-2.513,64.69,550.321,0,863.3653,0,31.44,2.875,192,1.208,1.79,273.2632,0.56,51.6,59.73,33.69,35.62
"2016-02-04 13:10:00",221036,0.643,142.7,-1.664,61.15,782.9022,0,863.2222,0,31.41,2.873,192,1.156,1.737,334.8027,0.464,51.66,59.73,33.7,35.62
"2016-02-04 13:20:00",221037,0.464,54.55,-1.597,60.3,464.7552,0,863.1501,0,31.61,2.874,192,1.134,1.811,210.6274,0.514,51.6,59.73,33.69,35.62
"2016-02-04 13:30:00",221038,0.283,96.4,-1.232,59.05,815.5429,0,863.1289,0,30.73,2.876,192,1.216,1.868,299.5311,0.386,51.6,59.73,33.69,35.62
"2016-02-04 13:40:00",221039,0.557,90.2,-1.05,57.72,905.7002,0,862.9722,0,31.26,2.872,192,1.187,1.794,301.9831,0.335,51.6,59.73,33.69,35.62
"2016-02-04 13:50:00",221040,0.507,69.85,-1.128,58.09,468.4037,0,862.9216,0,31.45,2.873,191,1.153,1.817,207.3781,0.534,51.6,59.79,33.69,35.63
"2016-02-04 14:00:00",221041,0.614,118.1,-1.685,59.28,162.6196,0,862.9695,0,31.53,2.875,191,1.125,1.793,116.1489,0.742,51.6,59.73,33.69,35.62
"2016-02-04 14:10:00",221042,0.473,354.4,-2.031,61.77,226.8824,0,863.0228,0,31.52,2.877,191,1.112,1.767,136.634,0.633,51.66,59.73,33.7,35.62
"2016-02-04 14:20:00",221043,0.467,137.5,-2.229,64.16,127.4371,0,863.0983,0,31.68,2.875,192,1.117,1.711,102.1523,0.824,51.6,59.73,33.69,35.62
"2016-02-04 14:30:00",221044,0.145,313.7,-2.375,67.76,91.74743,0,863.1377,0,31.47,2.878,190,1.168,1.76,82.30994,0.912,51.55,59.73,33.68,35.62
"2016-02-04 14:40:00",221045,0.2,8.56,-2.569,70.01,132.0353,0,863.0933,0,31.41,2.88,192,1.189,1.79,106.2143,0.811,51.6,59.73,33.69,35.62
"2016-02-04 14:50:00",221046,0.308,63.42,-2.603,71.29,154.9415,0,863.0196,0,31.56,2.878,192,1.188,1.795,117.7802,0.758,51.6,59.73,33.69,35.62
"2016-02-04 15:00:00",221047,0.248,31.35,-2.507,71.74,111.2951,0,863.1902,0,31.27,2.88,174,1.145,1.796,90.64518,0.818,51.6,59.73,33.69,35.62
"2016-02-04 15:10:00",221048,0.276,345,-2.489,70.99,102.1643,0,863.2525,0,31.45,2.88,192,1.081,1.786,85.39091,0.835,51.55,59.79,33.68,35.63
"2016-02-04 15:20:00",221049,0.31,357.5,-2.69,73.22,97.46529,0,863.3004,0,31.54,2.88,179,1.033,1.717,74.9164,0.774,51.6,59.73,33.69,35.62
"2016-02-04 15:30:00",221050,0.439,357.1,-2.941,73.34,73.28376,0,863.3455,0,31.66,2.879,192,1.065,1.696,59.10896,0.807,51.6,59.73,33.69,35.62
"2016-02-04 15:40:00",221051,0.19,353,-2.844,73.44,70.82669,0,863.3584,0,31.63,2.878,192,1.119,1.709,55.30663,0.783,51.6,59.73,33.69,35.62
"2016-02-04 15:50:00",221052,0.161,38.81,-2.737,74.56,64.23346,0,863.3616,0,31.45,2.881,176,1.165,1.728,49.87624,0.777,51.6,59.73,33.69,35.62
"2016-02-04 16:00:00",221053,0.352,19.04,-3.186,77.94,36.03923,0,863.3856,0,31.43,2.883,170,1.183,1.765,28.41282,0.79,51.6,59.73,33.69,35.62
"2016-02-04 16:10:00",221054,0.14,298.7,-3.424,81.8,23.92332,0,863.5121,0,31.32,2.885,193,1.17,1.795,20.06157,0.841,51.55,59.73,33.68,35.62
"2016-02-04 16:20:00",221055,0.106,359.1,-3.542,84,19.08932,0,863.5585,0,31.11,2.888,170,1.06,1.797,17.51899,0.917,51.55,59.73,33.68,35.62
"2016-02-04 16:30:00",221056,0.051,93.8,-3.541,86.7,24.6743,0,863.6174,0,30.97,2.889,193,1.026,1.798,22.0248,0.892,51.55,59.79,33.68,35.63
"2016-02-04 16:40:00",221057,0.094,46.65,-3.661,87.4,14.83289,0,863.6891,0,31.21,2.888,176,1.031,1.792,14.00993,0.948,51.6,59.73,33.69,35.62
"2016-02-04 16:50:00",221058,0.054,12.51,-3.73,90,11.97557,0,863.7902,0,31.46,2.885,178,1.074,1.785,10.51219,0.879,51.55,59.67,33.68,35.6
"2016-02-04 17:00:00",221059,0.081,322.2,-3.797,91.3,6.532131,0,863.8682,0,31.45,2.886,182,1.105,1.772,5.358411,0.811,51.55,59.73,33.68,35.62
"2016-02-04 17:10:00",221060,0.016,39.1,-3.865,90.2,1.764716,0,863.8682,0,31.44,2.886,186,1.111,1.76,0.9398144,0.507,51.6,59.73,33.69,35.62
"2016-02-04 17:20:00",221061,0.085,104,-3.835,92.5,0.3812663,0,863.8724,0,32.05,2.88,195,1.13,1.81,0.03410778,0.046,51.55,59.73,33.68,35.62
"2016-02-04 17:30:00",221062,0.117,120.2,-3.898,95.1,0,0,863.8856,0,32.01,2.881,191,1.151,1.84,0,0,51.55,59.67,33.68,35.6
"2016-02-04 17:40:00",221063,0.106,106.7,-4.034,95.4,0,0,863.7696,0,32.02,2.881,190,1.182,1.866,0,0,51.55,59.73,33.68,35.62
"2016-02-04 17:50:00",221064,0.057,133.2,-4.09,94.9,0,0,863.833,0,31.07,2.891,189,1.202,1.852,0,0,51.6,59.67,33.69,35.6
"2016-02-04 18:00:00",221065,0.018,136.5,-4.106,93.7,0,0,863.9551,0,30.82,2.894,190,1.207,1.812,0,0,51.6,59.67,33.69,35.6
"2016-02-04 18:10:00",221066,0.035,136.6,-4.137,92.8,0,0,863.8461,0,31.29,2.889,192,1.173,1.822,0,0,51.55,59.67,33.68,35.6
"2016-02-04 18:20:00",221067,0.155,127.8,-4.195,92.6,0,0,863.9163,0,31.34,2.889,191,1.157,1.831,0,0,51.55,59.67,33.68,35.6
"2016-02-04 18:30:00",221068,0.098,204.6,-4.176,92.2,0,0,863.9587,0,30.99,2.892,178,1.159,1.807,0,0,51.55,59.73,33.68,35.62
"2016-02-04 18:40:00",221069,0.031,214.8,-4.214,92.9,0,0,863.9903,0,31.36,2.889,197,1.171,1.766,0,0,51.55,59.67,33.68,35.6
"2016-02-04 18:50:00",221070,0.007,212,-4.265,93.7,0,0,864.0641,0,31.14,2.891,192,1.187,1.759,0.1213068,0,51.55,59.67,33.68,35.6
"2016-02-04 19:00:00",221071,0,0,-4.293,95.2,0,0,864.2115,0,31.88,2.884,200,1.194,1.765,0.185751,0,51.55,59.67,33.68,35.6
"2016-02-04 19:10:00",221072,0,0,-4.295,96.2,0,0,863.9777,0,32.99,2.873,242,1.195,1.759,0.2274502,0,51.55,59.67,33.68,35.6
"2016-02-04 19:20:00",221073,0,0,-4.443,96.2,0,0,863.8428,0,32.56,2.879,198,1.195,1.757,0.1061434,0,51.55,59.73,33.68,35.62
"2016-02-04 19:30:00",221074,0,0,-4.657,96.3,0,0,863.8281,0,32.66,2.878,206,1.195,1.757,0,0,51.55,59.73,33.68,35.62
"2016-02-04 19:40:00",221075,0.073,115.7,-4.548,95.8,0,0,863.8807,0,32.51,2.879,206,1.195,1.757,0.1592151,0,51.55,59.67,33.68,35.6
"2016-02-04 19:50:00",221076,0.184,91.8,-4.485,94.3,0,0,863.7817,0,32.24,2.881,195,1.185,1.757,0.2274502,0,51.55,59.73,33.68,35.62
"2016-02-04 20:00:00",221077,0.305,99,-4.419,89.4,0,0,863.7037,0,32.29,2.881,196,1.188,1.757,0.253986,0,51.55,59.73,33.68,35.62
"2016-02-04 20:10:00",221078,0.033,173.4,-4.474,92.5,0,0,863.8133,0,32.37,2.88,201,1.182,1.757,0.2122868,0,51.55,59.73,33.68,35.62
"2016-02-04 20:20:00",221079,0.009,176.3,-4.368,91.5,0,0,863.9166,0,32.11,2.883,192,1.151,1.757,0.08339839,0,51.55,59.73,33.68,35.62
"2016-02-04 20:30:00",221080,0.164,117.1,-4.661,93.9,0,0,863.9397,0,32.21,2.883,196,1.165,1.76,0,0,51.55,59.67,33.68,35.6
"2016-02-04 20:40:00",221081,0.077,97.6,-4.716,96,0,0,864.0472,0,32.21,2.883,198,1.135,1.779,0,0,51.55,59.67,33.68,35.6
"2016-02-04 20:50:00",221082,0.354,132.1,-4.752,96.1,0,0,864.0367,0,32.13,2.884,198,1.14,1.784,0.1554243,0,51.55,59.73,33.68,35.62
"2016-02-04 21:00:00",221083,0.104,101.7,-4.694,95.4,0,0,864.0303,0,32.11,2.884,197,1.149,1.772,0.2236593,0,51.55,59.73,33.68,35.62
"2016-02-04 21:10:00",221084,0.203,100.5,-4.674,94.2,0,0,864.201,0,31.76,2.887,190,1.139,1.774,0.2274502,0,51.55,59.67,33.68,35.6
"2016-02-04 21:20:00",221085,0.154,150.8,-4.663,93.1,0,0,864.1428,0,31.17,2.893,193,1.136,1.789,0.1061434,0,51.55,59.73,33.68,35.62
"2016-02-04 21:30:00",221086,0.416,135.3,-4.763,91.4,0,0,864.2183,0,30.91,2.897,171,1.113,1.794,0,0,51.55,59.67,33.68,35.6
"2016-02-04 21:40:00",221087,0.35,148,-4.916,90.6,0,0,864.209,0,30.83,2.898,188,1.096,1.808,0,0,51.55,59.73,33.68,35.62
"2016-02-04 21:50:00",221088,0.385,136.5,-5.015,88.5,0,0,863.9698,0,30.77,2.899,184,1.091,1.819,0,0,51.55,59.67,33.68,35.6
"2016-02-04 22:00:00",221089,0.065,52.34,-5.031,87.3,0,0,863.981,0,30.65,2.9,188,1.083,1.816,0,0,51.55,59.67,33.68,35.6
"2016-02-04 22:10:00",221090,0.036,167.5,-5.06,86.5,0,0,863.9731,0,31.29,2.894,186,1.078,1.815,0.02653722,0,51.55,59.73,33.68,35.62
"2016-02-04 22:20:00",221091,0.413,127,-5.061,84.7,0,0,863.991,0,30.91,2.898,176,1.086,1.827,0.1516456,0,51.55,59.67,33.68,35.6
"2016-02-04 22:30:00",221092,0.244,144.4,-5.379,87.6,0,0,864.0961,0,31.21,2.897,186,1.102,1.853,0.01137378,0,51.55,59.73,33.68,35.62
"2016-02-04 22:40:00",221093,0.295,143.1,-5.417,86.3,0,0,864.0084,0,31.27,2.896,181,1.107,1.877,0,0,51.55,59.73,33.68,35.62
"2016-02-04 22:50:00",221094,0.181,135.2,-5.401,84.2,0,0,864.0363,0,30.81,2.901,177,1.116,1.883,0,0,51.49,59.73,33.66,35.62
"2016-02-04 23:00:00",221095,0.145,127.6,-5.524,84.3,0,0,864.0396,0,31.1,2.899,190,1.13,1.901,0,0,51.49,59.67,33.66,35.6
"2016-02-04 23:10:00",221096,0.305,149.7,-5.55,83.1,0,0,864.2313,0,31.22,2.897,181,1.168,1.873,0.04550287,0,51.49,59.67,33.66,35.6
"2016-02-04 23:20:00",221097,0.031,165.8,-5.451,81.9,0,0,864.2972,0,31.06,2.899,185,1.183,1.881,0.04171138,0,51.55,59.73,33.68,35.62
"2016-02-04 23:30:00",221098,0.131,138.2,-5.577,82.7,0,0,864.2695,0,30.81,2.902,177,1.19,1.849,0,0,51.6,59.67,33.69,35.6
"2016-02-04 23:40:00",221099,0.037,121.6,-5.777,84.4,0,0,864.1798,0,30.99,2.902,181,1.203,1.845,0,0,51.49,59.67,33.66,35.6
"2016-02-04 23:50:00",221100,0.211,91.5,-6.083,86.3,0,0,864.081,0,31.26,2.9,183,1.228,1.844,0,0,51.55,59.67,33.68,35.6
